Сальвадор

Brazil     12˚57′00″S   38˚30′00″W
temp.,
°C
wind,
m/s
gust,
m/s
humid.,
%
clouds,
%
prec.,
mm/h
press.,
hPa
HPBL,
m
27 november, fri
fri2700:00+26˚e5678100 2.1 1014561
03:00+25˚ese7878100 5.6 1013717
06:00+26˚ese6774100 1.6 1015828
09:00+26˚ese667581 2.1 1016733
12:00+26˚ese677437 0.1 1016877
15:00+26˚ese677461 0.1 1014888
18:00+26˚ese6675100 0.0 1014990
21:00+26˚ese677577 0.6 1016905
28 november, sat
sat2800:00+25˚ese787751 1.6 1015873
03:00+26˚ese787675 3.6 1014942
06:00+25˚ese8976100 1.9 1016945
09:00+26˚ese7874100 2.2 10171072
12:00+26˚ese7871100 0.0 10161129
15:00+26˚ese6774100 0.1 1014928
18:00+26˚ese6776100 0.4 1015930
21:00+26˚ese787690 0.6 10171001
29 november, sun
sun2900:00+26˚ese787398 0.1 1016978
03:00+26˚ese787683 0.2 10141108
06:00+26˚e677542 0.1 1015995
09:00+26˚e457256 0.1 10161014
12:00+26˚ese667425 0.2 1015553
15:00+26˚se567460 0.3 1013521
18:00+26˚ese7875100 0.0 1014809
21:00+26˚ese6777100 0.1 1015829
30 november, mon
mon3000:00+26˚e5676100 0.9 1015672
03:00+25˚e667999 4.4 1014569
06:00+25˚ese567515 1.1 1014813
09:00+26˚ese45719 1.3 1016874
12:00+26˚se55690 0.0 1014721
15:00+26˚se55692 0.0 1012800
18:00+26˚ese56713 0.0 1012881
21:00+26˚e557227 0.0 1014955
1 december, tue
tue100:00+26˚ese447363 0.0 1013873
03:00+25˚ese337334 0.1 1012622
06:00+26˚ese44749 0.2 1014651
09:00+26˚ese33735 0.4 1015605
12:00+27˚se45710 0.0 1014666
15:00+27˚ese66730 0.0 1012658
18:00+26˚e78760 0.0 1012680
21:00+26˚ene79800 0.0 1013696